DMSP 5D-2 F13 DEB, 40577

Orbit data source: Space-Track

DMSP 5D-2 F13 DEB, 40577 is space debris in SSO originally from a launch on Fri, 24 Mar 1995 UTC launched from the Air Force Western Test Range (AFWTR). Debris objects in space refer to the collection of defunct objects orbiting the Earth. Examples of debris include non-operational satellites, rocket bodies, and fragments generated from explosions, collisions, or faulty payload assembly.

Loading next visibility...
Identifier
40577, 1995-015EL
Orbit
SSO
Country
Flag of USUS
Related business
Manufacturer
Unknown
Mission
Spacecraft
Bus & Motor
Unknown
Mass
Unknown
Launch date (UTC)
1995-03-24 (31 years ago)
Launch vehicle
Unknown
Launch site
Air Force Western Test Range (AFWTR)
Object type
Payload
Rocket body
Debris
Shape & HBR
Unknown shape, 0.1 m
Radar Cross Section
Small (<0.1 m²)

Expand to show TLE details & history
Last TLE update: 3 days ago

TLE from 3 days ago
0 DMSP 5D-2 F13 DEB
1 40577U 95015EL  26170.08850530  .00006432  00000-0  15865-2 0  9990
2 40577  98.6557 221.3882 0014070 146.5460 213.6626 14.52424636583862
Epoch: 2026-06-19T02:07Z
TLE epoch observation values (Epoch: 2026-06-19T02:07:26.857Z)
Latitude
-0.00006°
Longitude
-77.79619°
Altitude
729.017 km
Speed
7.486 km/s
True Right ascension
14h 45m 33s
True Declination
0° 00' 00"
Sunlit
Object was in full shadow at epoch
Visualization orbit readout
Latitude
Unknown
Longitude
Unknown
Altitude
Unknown
Speed
Unknown
Apparent Right ascension
Unknown
Apparent Declination
Unknown
Sunlit
N/A
Visualization observer readout
Local Sidereal Time
21:35:37
Azimuth
Unknown
Elevation
Unknown
Doppler factor
Unknown
Orbital elements
Apogee altitude
724.833 km
Perigee altitude
704.873 km
Semi-major axis
7,092.99 km
Eccentricity
0.00141
Inclination
98.6557°
RAAN
221.3882°
Arg. of periapsis
146.546°
True anomaly
213.57336°
Mean anomaly
213.6626°
Eccentric anomaly
213.61797°
Mean motion
3.63328 °/min
Orbital period
99.08 mins
BSTAR
0.0015865

Documentation

Showing up to 5 results
|